星链-30912 (STARLINK-30912 )

导读 | 豆包AI

STARLINK-30912是美国太空探索技术公司SpaceX星链星座的成员卫星,于2023年11月22日发射升空,星链项目旨在为全球提供高速低延迟卫星互联网服务,该卫星承担组网运营任务,星链部署至今已完成多轮发射,持续补充完善全球卫星互联网覆盖网络。

基本信息
目录编号:
58422
目录名称:
STARLINK-30912
国际标识:
2023-180W
轨道中心:
EARTH
卫星名称:
星链-30912
卫星全名:
星链-30912 (STARLINK-30912 )
卫星状态:
在轨 (已飞行890 天)
发射日期:
2023-11-22 UTC
国别 :
美国 (US)
星等 :
--
轨道信息
数据来源 国际轨道数据
星历时间: 2026-04-30T07:47:30+0800
20小时前
查看轨道信息
半长轴: 6861.193km
偏心率: 0.0001302
轨道倾角: 43.007°
近地点辐角 263.568°
升交点赤经 340.570°
平近点角 96.503°
近地点: 482.162km
远地点: 483.95km
周期: 94.267分钟
每日圈数: 15.27578
详细信息
固有亮度:
5
最大亮度:
0.3
卫星平台:
Starlink v2.0 mini
覆盖范围:
全球
运营商:
太空探索技术公司
运营商所在国:
美国
制造商(研发单位):
太空探索技术公司
制造商所在国:
美国
使用方式:
暂无
卫星简介
星链(Starlink)计划是由太空探索技术公司(SpaceX)提出的一个巨型低轨卫星互联网星座项目,计划在2019年至2024年间在太空搭建由约1.2万颗卫星组成的“星链”网络,其中1584颗将部署在地球上空550千米处的近地轨道,并从2020年开始工作。该卫星仍在工作。
2D轨道图
3D轨道图
轨道高度分析图
轨道倾角分析图
轨道综合分析图
查看轨道综合分析图